GW2765 Weather Reports


time (UTC)temp
F
wind
direction
speed
knots
gust
knots
rain 1hr
in
rain 24hr
in
rain mn
in
humidity
%
barometer
mb
20260507105728 66 184 0.0 0.0 0.00 0.00 0.00 56 1013.2
20260507105500 66 184 0.0 0.0 0.00 0.00 0.00 56 1013.3
20260507104728 66 184 0.0 1.7 0.00 0.00 0.00 56 1013.3
20260507104229 66 183 0.0 1.7 0.00 0.00 0.00 56 1013.3
20260507103728 66 164 0.0 0.9 0.00 0.00 0.00 56 1013.4
20260507103229 66 179 0.0 0.0 0.00 0.00 0.00 56 1013.5
20260507102729 66 178 0.0 0.0 0.00 0.00 0.00 56 1013.5
20260507102229 66 177 0.0 0.0 0.00 0.00 0.00 56 1013.6
20260507101729 67 177 0.0 0.0 0.00 0.00 0.00 55 1013.6
20260507100728 67 177 0.0 0.0 0.00 0.00 0.00 54 1013.6
20260507100228 67 177 0.0 1.7 0.00 0.00 0.00 54 1013.6
20260507095728 67 164 0.0 1.7 0.00 0.00 0.00 54 1013.6
20260507095229 67 165 0.0 1.7 0.00 0.00 0.00 55 1013.8
20260507094729 67 155 0.0 0.0 0.00 0.00 0.00 56 1013.8
20260507094229 67 148 0.0 0.0 0.00 0.00 0.00 56 1013.8
20260507093729 67 158 0.0 0.0 0.00 0.00 0.00 56 1013.8
20260507093230 67 162 0.0 0.0 0.00 0.00 0.00 57 1013.7
20260507092729 67 160 0.0 0.0 0.00 0.00 0.00 57 1013.8
20260507092509 68 160 0.0 0.0 0.00 0.00 0.00 57 1013.9
20260507091729 68 203 0.0 0.0 0.00 0.00 0.00 57 1013.8
20260507091456 68 204 0.0 0.0 0.00 0.00 0.00 56 1013.9
20260507090729 68 204 0.0 0.0 0.00 0.00 0.00 56 1014.0
20260507090459 68 204 0.0 0.0 0.00 0.00 0.00 55 1014.1
20260507085729 68 204 0.0 0.0 0.00 0.00 0.00 55 1014.0
20260507085230 68 204 0.0 0.0 0.00 0.00 0.00 54 1014.1
20260507084729 68 203 0.0 0.0 0.00 0.00 0.00 54 1014.0
20260507084229 68 203 0.0 0.0 0.00 0.00 0.00 54 1014.2
20260507083730 68 203 0.0 0.0 0.00 0.00 0.00 53 1014.4
20260507083229 69 203 0.0 0.0 0.00 0.00 0.00 53 1014.2
20260507082728 69 203 0.0 0.0 0.00 0.00 0.00 52 1014.2
20260507082503 69 203 0.0 0.0 0.00 0.00 0.00 52 1014.4
20260507081729 69 203 0.0 0.0 0.00 0.00 0.00 52 1014.4
20260507081230 69 203 0.0 0.0 0.00 0.00 0.00 52 1014.4
20260507080729 69 203 0.0 0.0 0.00 0.00 0.00 52 1014.5
20260507080229 69 203 0.0 0.0 0.00 0.00 0.00 52 1014.7
20260507075729 70 203 0.0 0.0 0.00 0.00 0.00 52 1014.7
20260507075229 70 204 0.0 0.0 0.00 0.00 0.00 51 1014.7
20260507074729 70 205 0.0 0.9 0.00 0.00 0.00 51 1014.7
20260507074229 71 203 0.0 0.9 0.00 0.00 0.00 50 1014.6
20260507073730 71 243 0.0 0.9 0.00 0.00 0.00 49 1014.8
20260507073229 71 6 0.0 0.9 0.00 0.00 0.00 51 1014.7
20260507072959 71 6 0.0 0.9 0.00 0.00 0.00 52 1014.7
20260507072229 71 136 0.0 0.9 0.00 0.00 0.00 50 1014.7
20260507071729 71 252 0.0 0.0 0.00 0.00 0.00 50 1014.8
20260507070729 72 169 0.0 0.9 0.00 0.00 0.00 50 1014.8
20260507070228 71 44 0.0 0.0 0.00 0.00 0.00 50 1014.8
20260507065730 71 44 0.0 0.0 0.00 0.00 0.00 50 1014.8
20260507065229 71 44 0.0 0.0 0.00 0.00 0.00 49 1014.8
20260507064730 72 44 0.0 0.0 0.00 0.00 0.00 47 1014.8
20260507064228 72 44 0.0 0.9 0.00 0.00 0.00 46 1014.8
20260507063957 73 44 0.0 0.9 0.00 0.00 0.00 46 1014.9
20260507063230 73 41 0.0 0.0 0.00 0.00 0.00 44 1014.8
20260507062730 73 122 0.0 0.0 0.00 0.00 0.00 42 1014.9
20260507062229 73 122 0.0 0.9 0.00 0.00 0.00 42 1014.8
20260507061728 73 14 0.0 0.9 0.00 0.00 0.00 42 1014.8
20260507060722 73 8 0.0 0.0 0.00 0.00 0.00 41 1014.7
20260507060225 73 8 0.0 0.0 0.00 0.00 0.00 41 1014.7
20260507055721 74 8 0.0 0.0 0.00 0.00 0.00 40 1014.7
20260507055219 74 8 0.0 0.0 0.00 0.00 0.00 40 1014.7
20260507054717 74 8 0.0 0.0 0.00 0.00 0.00 39 1014.7
20260507054215 74 8 0.0 0.0 0.00 0.00 0.00 38 1014.7
20260507053715 74 8 0.0 0.0 0.00 0.00 0.00 39 1014.7
20260507053216 74 8 0.0 0.0 0.00 0.00 0.00 39 1014.6
20260507052714 74 8 0.0 0.0 0.00 0.00 0.00 38 1014.7
20260507052212 74 8 0.0 0.0 0.00 0.00 0.00 39 1014.7
20260507051719 74 8 0.0 0.0 0.00 0.00 0.00 39 1014.7
20260507050710 75 8 0.0 0.0 0.00 0.00 0.00 38 1014.8
20260507050207 76 8 0.0 0.0 0.00 0.00 0.00 37 1014.6
20260507045706 76 8 0.0 0.9 0.00 0.00 0.00 37 1014.7
20260507044702 76 352 0.0 0.9 0.00 0.00 0.00 37 1014.6
20260507044430 76 352 0.0 0.9 0.00 0.00 0.00 36 1014.6
20260507043702 76 352 0.0 0.0 0.00 0.00 0.00 37 1014.6
20260507043431 76 351 0.0 0.0 0.00 0.00 0.00 36 1014.5
20260507042701 77 352 0.0 0.9 0.00 0.00 0.00 36 1014.6
20260507042204 77 352 0.0 0.9 0.00 0.00 0.00 36 1014.6
20260507041702 77 349 0.0 0.9 0.00 0.00 0.00 35 1014.6
20260507041202 77 353 0.0 0.9 0.00 0.00 0.00 35 1014.5
20260507040703 77 297 0.0 0.9 0.00 0.00 0.00 35 1014.5
20260507040200 77 338 0.0 0.0 0.00 0.00 0.00 35 1014.4
20260507035701 78 338 0.0 0.0 0.00 0.00 0.00 35 1014.2
20260507034702 78 338 0.0 0.0 0.00 0.00 0.00 34 1014.1
20260507034435 78 338 0.0 0.0 0.00 0.00 0.00 34 1014.0
20260507033701 79 338 0.0 0.9 0.00 0.00 0.00 33 1013.9
20260507032702 79 335 0.0 0.9 0.00 0.00 0.00 32 1013.8
20260507032201 79 337 0.0 0.0 0.00 0.00 0.00 32 1013.6
20260507031704 80 337 0.0 0.0 0.00 0.00 0.00 31 1013.6
20260507031202 80 337 0.0 0.0 0.00 0.00 0.00 31 1013.4
20260507030701 80 337 0.0 0.9 0.00 0.00 0.00 31 1013.4
20260507030431 81 337 0.0 0.9 0.00 0.00 0.00 30 1013.3
20260507025657 81 65 0.0 0.9 0.00 0.00 0.00 30 1013.3
20260507025151 82 65 0.0 0.9 0.00 0.00 0.00 30 1013.1
20260507024644 82 65 0.0 0.9 0.00 0.00 0.00 30 1013.0
20260507024139 82 66 0.0 0.9 0.00 0.00 0.00 29 1012.9
20260507023635 83 66 0.0 1.7 0.00 0.00 0.00 29 1012.9
20260507023133 83 70 0.0 2.6 0.00 0.00 0.00 28 1012.9
20260507022632 83 71 0.0 2.6 0.00 0.00 0.00 28 1012.7
20260507022132 84 78 0.9 4.3 0.00 0.00 0.00 28 1012.7
20260507021632 84 95 0.9 4.3 0.00 0.00 0.00 27 1012.6
20260507021131 85 87 0.9 3.5 0.00 0.00 0.00 27 1012.7
20260507020631 85 80 0.9 2.6 0.00 0.00 0.00 27 1012.6
20260507020133 86 76 0.9 4.3 0.00 0.00 0.00 27 1012.5
20260507015632 86 91 1.7 4.3 0.00 0.00 0.00 27 1012.4
20260507015356 87 73 0.9 3.5 0.00 0.00 0.00 27 1012.5
20260507014631 87 102 0.9 3.5 0.00 0.00 0.00 26 1012.5
20260507014132 87 57 0.9 3.5 0.00 0.00 0.00 26 1012.5
20260507013633 87 86 0.9 3.5 0.00 0.00 0.00 26 1012.5
20260507013131 87 65 1.7 4.3 0.00 0.00 0.00 26 1012.4
20260507012856 87 105 1.7 4.3 0.00 0.00 0.00 26 1012.4
20260507012132 87 120 1.7 6.1 0.00 0.00 0.00 27 1012.3
20260507011631 87 110 2.6 6.1 0.00 0.00 0.00 26 1012.3
20260507011130 87 79 1.7 6.1 0.00 0.00 0.00 26 1012.4
20260507010630 88 72 1.7 7.0 0.00 0.00 0.00 26 1012.4
20260507010129 88 51 1.7 7.0 0.00 0.00 0.00 26 1012.3
20260507005859 88 104 1.7 7.0 0.00 0.00 0.00 26 1012.2
20260507005358 88 68 2.6 7.0 0.00 0.00 0.00 26 1012.3
20260507004629 88 87 3.5 8.7 0.00 0.00 0.00 26 1012.3
20260507004129 88 82 3.5 8.7 0.00 0.00 0.00 24 1012.3
20260507003630 89 76 2.6 7.8 0.00 0.00 0.00 26 1012.3
20260507003129 88 76 2.6 7.8 0.00 0.00 0.00 24 1012.3
20260507002629 89 124 2.6 6.1 0.00 0.00 0.00 24 1012.2
20260507002129 89 71 2.6 7.8 0.00 0.00 0.00 24 1012.2
20260507001629 89 98 3.5 7.8 0.00 0.00 0.00 24 1012.1
20260507001130 89 113 3.5 7.8 0.00 0.00 0.00 24 1012.2
20260507000630 89 105 2.6 7.8 0.00 0.00 0.00 24 1012.1
20260507000130 89 59 2.6 7.0 0.00 0.00 0.00 24 1012.0
20260506235629 89 120 2.6 8.7 0.00 0.00 0.00 24 1012.0
20260506235129 90 108 2.6 8.7 0.00 0.00 0.00 23 1012.1
20260506234630 90 80 2.6 5.2 0.00 0.00 0.00 24 1012.0
20260506234128 89 76 2.6 7.0 0.00 0.00 0.00 23 1011.9
20260506233622 89 106 2.6 7.0 0.00 0.00 0.00 23 1012.0
20260506233117 89 96 1.7 5.2 0.00 0.00 0.00 23 1012.1
20260506232609 90 108 1.7 5.2 0.00 0.00 0.00 23 1012.2
20260506232333 89 85 2.6 6.1 0.00 0.00 0.00 23 1012.2
20260506231110 89 87 1.7 7.8 0.00 0.00 0.00 23 1012.4
20260506230608 89 54 1.7 7.8 0.00 0.00 0.00 23 1012.4
20260506230332 89 113 1.7 5.2 0.00 0.00 0.00 23 1012.4
20260506225608 89 23 1.7 5.2 0.00 0.00 0.00 24 1012.5
20260506224608 89 115 0.9 4.3 0.00 0.00 0.00 24 1012.6
20260506224118 89 103 1.7 5.2 0.00 0.00 0.00 24 1012.7
20260506223606 89 47 2.6 7.0 0.00 0.00 0.00 23 1012.9
20260506222330 88 89 0.9 3.5 0.00 0.00 0.00 26 1013.1
20260506221605 89 27 1.7 5.2 0.00 0.00 0.00 24 1013.2
20260506221109 88 18 1.7 7.0 0.00 0.00 0.00 26 1013.2
20260506220604 88 356 2.6 7.0 0.00 0.00 0.00 26 1013.4
20260506215603 88 160 0.9 5.2 0.00 0.00 0.00 26 1013.5
20260506215102 88 172 1.7 4.3 0.00 0.00 0.00 26 1013.6
20260506214600 87 63 1.7 7.0 0.00 0.00 0.00 28 1013.7
20260506214327 87 66 1.7 7.0 0.00 0.00 0.00 27 1013.8
20260506213830 88 57 0.9 6.1 0.00 0.00 0.00 27 1013.9
20260506213101 87 134 0.9 7.0 0.00 0.00 0.00 27 1013.9
20260506212602 87 71 1.7 7.0 0.00 0.00 0.00 28 1013.9
20260506212101 87 78 2.6 5.2 0.00 0.00 0.00 27 1013.9
20260506211836 87 28 1.7 5.2 0.00 0.00 0.00 28 1014.1
20260506211103 87 61 1.7 4.3 0.00 0.00 0.00 28 1014.2
20260506210601 86 34 1.7 6.1 0.00 0.00 0.00 28 1014.2
20260506205600 86 68 0.9 5.2 0.00 0.00 0.00 29 1014.5
20260506205101 86 41 0.9 5.2 0.00 0.00 0.00 28 1014.5
20260506204601 86 111 0.9 5.2 0.00 0.00 0.00 26 1014.5
20260506204102 86 94 0.9 5.2 0.00 0.00 0.00 27 1014.6
20260506203603 86 18 1.7 5.2 0.00 0.00 0.00 27 1014.7
20260506203057 86 17 1.7 6.1 0.00 0.00 0.00 28 1014.9
20260506202551 86 117 1.7 6.1 0.00 0.00 0.00 27 1014.8
20260506202046 85 333 0.9 4.3 0.00 0.00 0.00 27 1014.9
20260506201539 85 107 0.9 3.5 0.00 0.00 0.00 27 1015.0
20260506201033 85 106 0.9 5.2 0.00 0.00 0.00 27 1015.0
20260506200533 84 5 1.7 5.2 0.00 0.00 0.00 28 1015.1
20260506200030 84 56 0.9 4.3 0.00 0.00 0.00 28 1015.1
20260506195800 84 330 0.9 3.5 0.00 0.00 0.00 28 1015.2
20260506195028 84 23 0.9 6.1 0.00 0.00 0.00 29 1015.3
20260506194528 84 56 1.7 6.1 0.00 0.00 0.00 29 1015.3
20260506194030 83 105 0.9 3.5 0.00 0.00 0.00 29 1015.4
20260506193531 83 293 0.9 4.3 0.00 0.00 0.00 30 1015.5
20260506193029 83 38 0.9 4.3 0.00 0.00 0.00 29 1015.6
20260506192529 83 81 0.9 3.5 0.00 0.00 0.00 31 1015.6
20260506192028 82 166 0.9 3.5 0.00 0.00 0.00 30 1015.7
20260506191532 82 56 0.9 4.3 0.00 0.00 0.00 31 1015.9
20260506191030 82 218 0.9 4.3 0.00 0.00 0.00 30 1015.9
20260506190529 82 65 0.9 4.3 0.00 0.00 0.00 31 1016.1
20260506190259 81 22 0.9 4.3 0.00 0.00 0.00 32 1016.0
20260506185530 82 72 0.9 4.3 0.00 0.00 0.00 31 1016.1
20260506185029 81 91 1.7 4.3 0.00 0.00 0.00 32 1016.2
20260506184530 80 137 1.7 4.3 0.00 0.00 0.00 33 1016.2
20260506184029 81 75 0.9 3.5 0.00 0.00 0.00 33 1016.2
20260506183753 81 117 0.9 4.3 0.00 0.00 0.00 32 1016.3
20260506183301 81 60 0.9 4.3 0.00 0.00 0.00 32 1016.4
20260506182529 80 148 0.9 5.2 0.00 0.00 0.00 34 1016.4
20260506182030 79 40 0.9 5.2 0.00 0.00 0.00 35 1016.5
20260506181529 79 52 0.9 4.3 0.00 0.00 0.00 36 1016.5
20260506181030 78 43 1.7 4.3 0.00 0.00 0.00 35 1016.5
20260506180757 78 86 0.9 3.5 0.00 0.00 0.00 35 1016.5
20260506180029 79 55 0.9 3.5 0.00 0.00 0.00 35 1016.5
20260506175529 78 157 0.9 5.2 0.00 0.00 0.00 36 1016.6
20260506175029 77 82 1.7 5.2 0.00 0.00 0.00 37 1016.5
20260506174756 77 105 1.7 5.2 0.00 0.00 0.00 38 1016.5
20260506174032 77 64 0.9 4.3 0.00 0.00 0.00 37 1016.5
20260506173530 76 330 0.9 6.1 0.00 0.00 0.00 37 1016.5
20260506173029 76 54 0.9 6.1 0.00 0.00 0.00 37 1016.5
20260506172528 76 98 0.9 4.3 0.00 0.00 0.00 37 1016.6
20260506172031 75 239 1.7 4.3 0.00 0.00 0.00 38 1016.5
20260506171529 75 32 1.7 4.3 0.00 0.00 0.00 38 1016.6
20260506171029 74 40 1.7 4.3 0.00 0.00 0.00 39 1016.5
20260506170530 74 30 1.7 4.3 0.00 0.00 0.00 39 1016.5
20260506170258 74 90 0.9 4.3 0.00 0.00 0.00 42 1016.5
20260506165528 74 36 0.9 4.3 0.00 0.00 0.00 42 1016.5
20260506165029 74 201 0.9 3.5 0.00 0.00 0.00 42 1016.5
20260506164802 74 149 0.9 4.3 0.00 0.00 0.00 43 1016.5
20260506164259 73 89 0.9 4.3 0.00 0.00 0.00 42 1016.5
20260506163812 73 52 0.9 3.5 0.00 0.00 0.00 42 1016.5
20260506163022 73 148 0.9 3.5 0.00 0.00 0.00 42 1016.6
20260506162524 73 153 0.9 3.5 0.00 0.00 0.00 41 1016.6
20260506162250 73 43 0.0 3.5 0.00 0.00 0.00 41 1016.6
20260506160523 73 98 0.0 1.7 0.00 0.00 0.00 42 1016.5
20260506160020 72 106 0.0 1.7 0.00 0.00 0.00 43 1016.5
20260506155019 71 103 0.0 0.9 0.00 0.00 0.00 44 1016.5
20260506154523 71 209 0.0 1.7 0.00 0.00 0.00 46 1016.4
20260506154252 70 152 0.0 1.7 0.00 0.00 0.00 47 1016.5
20260506153514 69 155 0.0 1.7 0.00 0.00 0.00 48 1016.5
20260506153012 68 110 0.0 1.7 0.00 0.00 0.00 50 1016.4
20260506152515 69 109 0.0 1.7 0.00 0.00 0.00 51 1016.5
20260506152012 69 68 0.0 1.7 0.00 0.00 0.00 49 1016.5
20260506151511 68 115 0.0 0.9 0.00 0.00 0.00 51 1016.4
20260506151008 68 170 0.0 0.9 0.00 0.00 0.00 52 1016.5
20260506150509 68 148 0.0 0.9 0.00 0.00 0.00 52 1016.4
20260506150007 67 150 0.0 0.9 0.00 0.00 0.00 53 1016.4
20260506145508 68 105 0.0 1.7 0.00 0.00 0.00 52 1016.3
20260506144505 67 186 0.0 0.0 0.00 0.00 0.00 53 1016.4
20260506144004 67 127 0.0 0.0 0.00 0.00 0.00 52 1016.4
20260506143505 67 119 0.0 0.0 0.00 0.00 0.00 51 1016.3
20260506143005 67 146 0.0 0.0 0.00 0.00 0.00 53 1016.2
20260506142506 66 240 0.0 0.0 0.00 0.00 0.00 54 1016.2
20260506142003 67 259 0.0 0.0 0.00 0.00 0.00 54 1016.2
20260506141502 66 156 0.0 0.0 0.00 0.00 0.00 54 1016.2
20260506141005 65 141 0.0 0.0 0.00 0.00 0.00 55 1016.2
20260506140503 65 142 0.0 0.0 0.00 0.00 0.00 56 1016.1
20260506140004 64 143 0.0 0.0 0.00 0.00 0.00 57 1016.0
20260506135504 64 163 0.0 0.0 0.00 0.00 0.00 58 1016.0
20260506135001 63 173 0.0 0.0 0.00 0.00 0.00 58 1015.9
20260506134501 63 140 0.0 0.0 0.00 0.00 0.00 58 1015.8
20260506134228 62 142 0.0 0.0 0.00 0.00 0.00 60 1015.8
20260506133501 61 142 0.0 0.0 0.00 0.00 0.00 61 1015.7
20260506133001 61 142 0.0 0.0 0.00 0.00 0.00 62 1015.7
20260506132502 60 176 0.0 0.0 0.00 0.00 0.00 63 1015.6
20260506132001 59 176 0.0 0.0 0.00 0.00 0.00 65 1015.7
20260506131502 58 166 0.0 0.0 0.00 0.00 0.00 66 1015.5
20260506131004 58 155 0.0 0.0 0.00 0.00 0.00 66 1015.6
20260506130505 58 163 0.0 0.0 0.00 0.00 0.00 66 1015.5
20260506130005 58 145 0.0 0.0 0.00 0.00 0.00 66 1015.5
20260506125502 58 143 0.0 0.0 0.00 0.00 0.00 67 1015.4
20260506124501 58 169 0.0 0.0 0.00 0.00 0.00 67 1015.3
20260506124000 58 158 0.0 0.0 0.00 0.00 0.00 67 1015.3
20260506123503 58 203 0.0 0.0 0.00 0.00 0.00 68 1015.3
20260506123004 57 207 0.0 0.0 0.00 0.00 0.00 69 1015.3
20260506122501 57 207 0.0 0.0 0.00 0.00 0.00 68 1015.2
20260506122001 57 207 0.0 0.0 0.00 0.00 0.00 69 1015.2
20260506121501 57 207 0.0 0.0 0.00 0.00 0.00 69 1015.2
20260506121002 57 207 0.0 0.0 0.00 0.00 0.00 68 1015.0
20260506120501 57 207 0.0 0.0 0.00 0.00 0.00 68 1015.0
20260506120004 57 207 0.0 0.0 0.00 0.00 0.00 67 1014.9
20260506115505 57 207 0.0 0.0 0.00 0.00 0.00 67 1014.9
20260506115004 58 207 0.0 0.0 0.00 0.00 0.00 66 1014.9
20260506114504 58 207 0.0 0.0 0.00 0.00 0.00 65 1014.9
20260506114005 59 207 0.0 0.0 0.00 0.00 0.00 65 1014.9
20260506113502 59 207 0.0 0.0 0.00 0.00 0.00 64 1014.9
20260506113001 59 207 0.0 0.0 0.00 0.00 0.00 64 1014.9
20260506112502 59 232 0.0 0.0 0.00 0.00 0.00 64 1014.9
20260506112001 60 143 0.0 0.0 0.00 0.00 0.00 63 1014.9
20260506111500 60 171 0.0 0.0 0.00 0.00 0.00 63 1014.9
20260506111000 60 238 0.0 0.9 0.00 0.00 0.00 62 1014.9
20260506110501 60 227 0.0 0.9 0.00 0.00 0.00 61 1014.9
20260506110005 60 291 0.0 0.9 0.00 0.00 0.00 61 1014.8